Time,TemperatureF,DewpointF,PressureIn,WindDirection,WindDirectionDegrees,WindSpeedMPH,WindSpeedGustMPH,Humidity,HourlyPrecipIn,Conditions,Clouds,dailyrainin,SoftwareType,DateUTC
2013-12-13 00:12:00,27.5,16.0,30.33,SE,132,0.0,2.0,63,0.00,,,0.00,weatherlink.com 1.10,2013-12-13 06:12:00,
2013-12-13 00:27:00,27.3,16.0,30.33,SE,134,1.0,3.0,63,0.00,,,0.00,weatherlink.com 1.10,2013-12-13 06:27:00,
2013-12-13 00:42:00,27.1,16.0,30.32,ESE,118,2.0,3.0,63,0.00,,,0.00,weatherlink.com 1.10,2013-12-13 06:42:00,
2013-12-13 00:57:00,27.1,16.0,30.31,SE,131,2.0,3.0,64,0.00,,,0.00,weatherlink.com 1.10,2013-12-13 06:57:00,
2013-12-13 01:13:00,26.6,17.0,30.30,SE,129,1.0,3.0,66,0.00,,,0.00,weatherlink.com 1.10,2013-12-13 07:13:00,
2013-12-13 01:28:00,26.3,17.0,30.29,ESE,122,2.0,4.0,68,0.00,,,0.00,weatherlink.com 1.10,2013-12-13 07:28:00,
2013-12-13 01:43:00,26.2,17.0,30.28,SE,136,3.0,4.0,69,0.00,,,0.00,weatherlink.com 1.10,2013-12-13 07:43:00,
2013-12-13 01:58:00,26.0,17.0,30.28,ESE,119,3.0,4.0,70,0.00,,,0.00,weatherlink.com 1.10,2013-12-13 07:58:00,
2013-12-13 02:13:00,26.0,18.0,30.27,SE,132,3.0,5.0,71,0.00,,,0.00,weatherlink.com 1.10,2013-12-13 08:13:00,
2013-12-13 02:28:00,26.3,18.0,30.26,ESE,117,3.0,4.0,70,0.00,,,0.00,weatherlink.com 1.10,2013-12-13 08:28:00,
2013-12-13 02:43:00,26.0,18.0,30.25,ESE,117,3.0,3.0,71,0.00,,,0.00,weatherlink.com 1.10,2013-12-13 08:43:00,
2013-12-13 02:58:00,26.0,18.0,30.25,SE,134,3.0,3.0,72,0.00,,,0.00,weatherlink.com 1.10,2013-12-13 08:58:00,
2013-12-13 03:13:00,26.0,18.0,30.24,ESE,120,2.0,3.0,73,0.00,,,0.00,weatherlink.com 1.10,2013-12-13 09:13:00,
2013-12-13 03:28:00,26.4,19.0,30.24,ESE,108,2.0,4.0,73,0.00,,,0.00,weatherlink.com 1.10,2013-12-13 09:28:00,
2013-12-13 03:43:00,26.6,19.0,30.23,SE,129,2.0,3.0,72,0.00,,,0.00,weatherlink.com 1.10,2013-12-13 09:43:00,
2013-12-13 03:58:00,26.9,19.0,30.23,SSW,212,2.0,4.0,72,0.00,,,0.00,weatherlink.com 1.10,2013-12-13 09:58:00,
2013-12-13 04:13:00,26.8,19.0,30.22,SE,128,1.0,3.0,72,0.00,,,0.00,weatherlink.com 1.10,2013-12-13 10:13:00,
2013-12-13 04:28:00,26.8,19.0,30.21,SE,127,1.0,2.0,72,0.00,,,0.00,weatherlink.com 1.10,2013-12-13 10:28:00,
2013-12-13 04:43:00,27.2,19.0,30.20,ESE,122,2.0,3.0,72,0.00,,,0.00,weatherlink.com 1.10,2013-12-13 10:43:00,
2013-12-13 04:58:00,28.0,19.0,30.20,SE,132,3.0,5.0,70,0.00,,,0.00,weatherlink.com 1.10,2013-12-13 10:58:00,
2013-12-13 05:13:00,28.4,20.0,30.20,SE,133,1.0,4.0,70,0.00,,,0.00,weatherlink.com 1.10,2013-12-13 11:13:00,
2013-12-13 05:28:00,28.8,20.0,30.19,ESE,121,2.0,4.0,70,0.00,,,0.00,weatherlink.com 1.10,2013-12-13 11:28:00,
2013-12-13 05:43:00,29.0,20.0,30.20,SSE,157,2.0,3.0,70,0.00,,,0.00,weatherlink.com 1.10,2013-12-13 11:43:00,
2013-12-13 05:58:00,29.2,20.0,30.20,ESE,115,1.0,5.0,69,0.00,,,0.00,weatherlink.com 1.10,2013-12-13 11:58:00,
2013-12-13 06:13:00,29.4,20.0,30.21,SE,127,1.0,5.0,69,0.00,,,0.00,weatherlink.com 1.10,2013-12-13 12:13:00,
2013-12-13 06:28:00,29.5,21.0,30.21,SE,132,3.0,3.0,71,0.00,,,0.00,weatherlink.com 1.10,2013-12-13 12:28:00,
2013-12-13 06:43:00,29.5,23.0,30.21,SSW,195,0.0,3.0,77,0.00,,,0.00,weatherlink.com 1.10,2013-12-13 12:43:00,
2013-12-13 06:58:00,29.7,24.0,30.20,ESE,119,1.0,3.0,80,0.00,,,0.00,weatherlink.com 1.10,2013-12-13 12:58:00,
2013-12-13 07:13:00,29.8,25.0,30.20,SE,131,2.0,3.0,83,0.00,,,0.00,weatherlink.com 1.10,2013-12-13 13:13:00,
2013-12-13 07:28:00,30.0,25.0,30.19,SE,124,1.0,3.0,83,0.00,,,0.00,weatherlink.com 1.10,2013-12-13 13:28:00,
2013-12-13 07:43:00,30.1,26.0,30.19,SE,131,2.0,3.0,84,0.00,,,0.00,weatherlink.com 1.10,2013-12-13 13:43:00,
2013-12-13 07:58:00,30.2,26.0,30.19,SE,134,2.0,3.0,85,0.00,,,0.00,weatherlink.com 1.10,2013-12-13 13:58:00,
2013-12-13 08:13:00,30.3,26.0,30.18,ESE,122,3.0,4.0,84,0.00,,,0.00,weatherlink.com 1.10,2013-12-13 14:13:00,
2013-12-13 08:28:00,30.4,26.0,30.17,SE,143,4.0,6.0,83,0.00,,,0.00,weatherlink.com 1.10,2013-12-13 14:28:00,
2013-12-13 08:43:00,30.7,26.0,30.17,ESE,120,4.0,6.0,84,0.00,,,0.00,weatherlink.com 1.10,2013-12-13 14:43:00,
2013-12-13 08:59:00,31.0,27.0,30.18,SSE,156,1.0,5.0,85,0.00,,,0.00,weatherlink.com 1.10,2013-12-13 14:59:00,
2013-12-13 09:14:00,31.1,28.0,30.17,ESE,113,3.0,6.0,87,0.00,,,0.00,weatherlink.com 1.10,2013-12-13 15:14:00,
2013-12-13 09:29:00,31.4,28.0,30.16,SSE,148,3.0,5.0,88,0.00,,,0.00,weatherlink.com 1.10,2013-12-13 15:29:00,
2013-12-13 09:44:00,31.4,29.0,30.16,ESE,117,3.0,5.0,89,0.00,,,0.00,weatherlink.com 1.10,2013-12-13 15:44:00,
2013-12-13 09:59:00,31.2,29.0,30.16,SE,139,2.0,4.0,90,0.00,,,0.00,weatherlink.com 1.10,2013-12-13 15:59:00,
2013-12-13 10:14:00,31.1,29.0,30.15,ESE,120,3.0,4.0,91,0.00,,,0.00,weatherlink.com 1.10,2013-12-13 16:14:00,
2013-12-13 10:29:00,31.1,29.0,30.12,ESE,122,4.0,6.0,92,0.00,,,0.00,weatherlink.com 1.10,2013-12-13 16:29:00,
2013-12-13 10:44:00,31.1,29.0,30.12,ESE,122,3.0,5.0,93,0.00,,,0.00,weatherlink.com 1.10,2013-12-13 16:44:00,
2013-12-13 10:59:00,31.2,29.0,30.12,ESE,122,3.0,5.0,93,0.00,,,0.00,weatherlink.com 1.10,2013-12-13 16:59:00,
2013-12-13 11:14:00,31.2,29.0,30.12,SSE,158,2.0,4.0,93,0.00,,,0.00,weatherlink.com 1.10,2013-12-13 17:14:00,
2013-12-13 11:29:00,31.0,30.0,30.10,SE,141,1.0,4.0,94,0.00,,,0.00,weatherlink.com 1.10,2013-12-13 17:29:00,
2013-12-13 11:44:00,31.0,30.0,30.08,ESE,118,3.0,7.0,94,0.00,,,0.00,weatherlink.com 1.10,2013-12-13 17:44:00,
2013-12-13 11:59:00,30.9,29.0,30.05,SE,124,4.0,6.0,94,0.00,,,0.00,weatherlink.com 1.10,2013-12-13 17:59:00,
2013-12-13 12:14:00,31.0,30.0,30.05,SE,125,5.0,6.0,94,0.00,,,0.00,weatherlink.com 1.10,2013-12-13 18:14:00,
2013-12-13 12:29:00,31.2,30.0,30.04,SE,131,4.0,7.0,94,0.00,,,0.00,weatherlink.com 1.10,2013-12-13 18:29:00,
2013-12-13 12:44:00,31.3,30.0,30.02,ESE,115,9.0,9.0,93,0.00,,,0.00,weatherlink.com 1.10,2013-12-13 18:44:00,
2013-12-13 12:59:00,31.4,30.0,30.03,ESE,113,4.0,6.0,93,0.00,,,0.00,weatherlink.com 1.10,2013-12-13 18:59:00,
2013-12-13 13:14:00,31.7,30.0,30.02,ESE,122,2.0,6.0,92,0.00,,,0.00,weatherlink.com 1.10,2013-12-13 19:14:00,
2013-12-13 13:29:00,32.1,30.0,30.02,ESE,122,6.0,7.0,92,0.00,,,0.00,weatherlink.com 1.10,2013-12-13 19:29:00,
2013-12-13 13:44:00,32.1,30.0,30.02,ESE,115,4.0,7.0,91,0.00,,,0.00,weatherlink.com 1.10,2013-12-13 19:44:00,
2013-12-13 13:59:00,31.9,30.0,30.00,SSW,200,3.0,6.0,91,0.00,,,0.00,weatherlink.com 1.10,2013-12-13 19:59:00,
2013-12-13 14:14:00,31.8,30.0,30.00,SE,127,4.0,5.0,91,0.00,,,0.00,weatherlink.com 1.10,2013-12-13 20:14:00,
2013-12-13 14:29:00,31.9,30.0,30.00,SE,134,2.0,6.0,91,0.00,,,0.00,weatherlink.com 1.10,2013-12-13 20:29:00,
2013-12-13 14:44:00,32.0,30.0,29.98,ESE,109,5.0,6.0,91,0.00,,,0.00,weatherlink.com 1.10,2013-12-13 20:44:00,
2013-12-13 14:59:00,32.2,30.0,29.98,SSE,152,4.0,7.0,90,0.00,,,0.00,weatherlink.com 1.10,2013-12-13 20:59:00,
2013-12-13 15:14:00,32.0,29.0,29.98,ESE,120,4.0,7.0,90,0.00,,,0.00,weatherlink.com 1.10,2013-12-13 21:14:00,
2013-12-13 15:29:00,32.0,29.0,29.97,SE,143,7.0,7.0,90,0.00,,,0.00,weatherlink.com 1.10,2013-12-13 21:29:00,
2013-12-13 15:44:00,31.8,30.0,29.97,ESE,122,5.0,6.0,91,0.00,,,0.00,weatherlink.com 1.10,2013-12-13 21:44:00,
2013-12-13 16:00:00,31.7,29.0,29.96,ESE,122,6.0,7.0,91,0.00,,,0.00,weatherlink.com 1.10,2013-12-13 22:00:00,
2013-12-13 16:15:00,31.4,29.0,29.96,SE,134,6.0,9.0,92,0.00,,,0.00,weatherlink.com 1.10,2013-12-13 22:15:00,
2013-12-13 16:30:00,31.1,29.0,29.95,SE,124,4.0,9.0,93,0.00,,,0.00,weatherlink.com 1.10,2013-12-13 22:30:00,
2013-12-13 16:45:00,30.9,29.0,29.95,SE,127,5.0,7.0,94,0.00,,,0.00,weatherlink.com 1.10,2013-12-13 22:45:00,
2013-12-13 17:00:00,30.9,29.0,29.95,SE,126,7.0,9.0,94,0.00,,,0.00,weatherlink.com 1.10,2013-12-13 23:00:00,
2013-12-13 17:15:00,31.1,30.0,29.94,SE,139,3.0,11.0,95,0.00,,,0.00,weatherlink.com 1.10,2013-12-13 23:15:00,
2013-12-13 17:30:00,31.0,30.0,29.93,ESE,104,3.0,8.0,95,0.00,,,0.00,weatherlink.com 1.10,2013-12-13 23:30:00,
2013-12-13 17:45:00,31.0,30.0,29.93,SE,133,5.0,10.0,95,0.00,,,0.00,weatherlink.com 1.10,2013-12-13 23:45:00,
2013-12-13 18:00:00,31.0,30.0,29.94,SE,143,4.0,10.0,95,0.00,,,0.00,weatherlink.com 1.10,2013-12-14 00:00:00,
2013-12-13 18:15:00,30.9,30.0,29.93,ESE,103,3.0,11.0,96,0.00,,,0.00,weatherlink.com 1.10,2013-12-14 00:15:00,
2013-12-13 18:30:00,30.9,30.0,29.93,SE,134,2.0,9.0,96,0.00,,,0.00,weatherlink.com 1.10,2013-12-14 00:30:00,
2013-12-13 18:45:00,30.8,30.0,29.93,ESE,117,8.0,9.0,96,0.00,,,0.00,weatherlink.com 1.10,2013-12-14 00:45:00,
2013-12-13 19:00:00,30.8,30.0,29.93,SE,134,5.0,9.0,96,0.00,,,0.00,weatherlink.com 1.10,2013-12-14 01:00:00,
2013-12-13 19:15:00,30.8,30.0,29.93,ESE,106,6.0,9.0,96,0.00,,,0.00,weatherlink.com 1.10,2013-12-14 01:15:00,
2013-12-13 19:30:00,30.9,30.0,29.93,ESE,113,7.0,9.0,96,0.00,,,0.00,weatherlink.com 1.10,2013-12-14 01:30:00,
2013-12-13 19:45:00,30.8,30.0,29.93,ESE,122,5.0,9.0,96,0.00,,,0.00,weatherlink.com 1.10,2013-12-14 01:45:00,
2013-12-13 20:00:00,30.9,30.0,29.92,ESE,106,8.0,8.0,96,0.00,,,0.00,weatherlink.com 1.10,2013-12-14 02:00:00,
2013-12-13 20:15:00,30.9,30.0,29.93,ESE,111,6.0,9.0,96,0.00,,,0.00,weatherlink.com 1.10,2013-12-14 02:15:00,
2013-12-13 20:30:00,30.9,30.0,29.93,SE,134,3.0,8.0,96,0.00,,,0.00,weatherlink.com 1.10,2013-12-14 02:30:00,
2013-12-13 21:00:00,30.9,30.0,29.94,ESE,117,4.0,6.0,97,0.00,,,0.00,weatherlink.com 1.10,2013-12-14 03:00:00,
2013-12-13 21:15:00,30.9,30.0,29.94,SE,133,2.0,5.0,97,0.00,,,0.00,weatherlink.com 1.10,2013-12-14 03:15:00,
2013-12-13 21:30:00,31.0,30.0,29.92,SE,129,3.0,6.0,97,0.00,,,0.00,weatherlink.com 1.10,2013-12-14 03:30:00,
2013-12-13 21:45:00,31.0,30.0,29.91,ESE,115,4.0,6.0,97,0.00,,,0.00,weatherlink.com 1.10,2013-12-14 03:45:00,
2013-12-13 22:00:00,31.0,30.0,29.91,ESE,122,5.0,8.0,97,0.00,,,0.00,weatherlink.com 1.10,2013-12-14 04:00:00,
2013-12-13 22:15:00,31.0,30.0,29.92,ESE,113,5.0,8.0,97,0.00,,,0.00,weatherlink.com 1.10,2013-12-14 04:15:00,
2013-12-13 22:30:00,31.0,30.0,29.91,ESE,122,3.0,6.0,97,0.00,,,0.00,weatherlink.com 1.10,2013-12-14 04:30:00,
2013-12-13 22:45:00,31.1,30.0,29.91,SE,133,3.0,6.0,97,0.00,,,0.00,weatherlink.com 1.10,2013-12-14 04:45:00,
2013-12-13 23:00:00,31.1,30.0,29.90,ESE,122,3.0,7.0,97,0.00,,,0.00,weatherlink.com 1.10,2013-12-14 05:00:00,
2013-12-13 23:15:00,31.1,30.0,29.91,ESE,118,4.0,5.0,97,0.00,,,0.00,weatherlink.com 1.10,2013-12-14 05:15:00,
2013-12-13 23:30:00,31.0,30.0,29.91,ESE,122,3.0,5.0,97,0.00,,,0.00,weatherlink.com 1.10,2013-12-14 05:30:00,
2013-12-13 23:45:00,31.0,30.0,29.91,ESE,115,4.0,7.0,97,0.00,,,0.00,weatherlink.com 1.10,2013-12-14 05:45:00,